WetterOnline ( https://www.wetteronline.ch )

Wetter aktuell Marienberg

Aktuelles Wetter: Marienberg (640m)

6-stündlich | Neueste Meldungen
Ortszeit Temperatur Wetter
Sa, 20.04. 14:00 18.7° C leicht bewölkt
Sa, 20.04. 8:00 12.3° C wolkenlos
Sa, 20.04. 2:00 8.9° C wolkenlos
Fr, 19.04. 20:00 15.2° C wolkenlos
Fr, 19.04. 14:00 17.5° C wolkenlos
Fr, 19.04. 8:00 10.5° C wolkenlos
Fr, 19.04. 2:00 9.6° C wolkenlos
Do, 18.04. 20:00 13.9° C wolkenlos
Ortszeit Temperatur Wetter
Sa, 20.04. 14:10 17.9° C wolkig
Sa, 20.04. 14:00 18.7° C leicht bewölkt
Sa, 20.04. 13:50 18.7° C leicht bewölkt
Sa, 20.04. 13:40 18.9° C leicht bewölkt
Sa, 20.04. 13:30 18.0° C wolkig
Sa, 20.04. 13:20 18.0° C wolkig
Sa, 20.04. 13:00 17.6° C leicht bewölkt
Sa, 20.04. 12:30 17.6° C fast wolkenlos
Sa, 20.04. 12:00 17.8° C wolkenlos
Sa, 20.04. 11:30 16.9° C wolkenlos
Ortszeit Relative Feuchte Sichtweite
Sa, 20.04. 14:00 28% 50 km
Sa, 20.04. 8:00 42% 40 km
Sa, 20.04. 2:00 54% 35 km
Fr, 19.04. 20:00 38% 45 km
Fr, 19.04. 14:00 28% 50 km
Fr, 19.04. 8:00 56% 40 km
Fr, 19.04. 2:00 56% 40 km
Do, 18.04. 20:00 38% 60 km
Ortszeit Relative Feuchte Sichtweite
Sa, 20.04. 14:10 27% -
Sa, 20.04. 14:00 28% 50 km
Sa, 20.04. 13:50 28% -
Sa, 20.04. 13:40 28% -
Sa, 20.04. 13:30 28% 45 km
Sa, 20.04. 13:20 28% -
Sa, 20.04. 13:00 27% 65 km
Sa, 20.04. 12:30 29% 50 km
Sa, 20.04. 12:00 28% 35 km
Sa, 20.04. 11:30 26% 40 km
Ortszeit Niederschlagsmenge Niederschlagsart
Sa, 20.04. 14:00 0.0 l/m2 in 6 Std. -
Sa, 20.04. 8:00 0.0 l/m2 in 12 Std. -
Sa, 20.04. 2:00 0.0 l/m2 in 6 Std. -
Fr, 19.04. 20:00 0.0 l/m2 in 12 Std. -
Fr, 19.04. 14:00 0.0 l/m2 in 6 Std. -
Fr, 19.04. 8:00 0.0 l/m2 in 12 Std. -
Fr, 19.04. 2:00 0.0 l/m2 in 6 Std. -
Do, 18.04. 20:00 0.0 l/m2 in 12 Std. -
Ortszeit Niederschlagsmenge Niederschlagsart
Sa, 20.04. 14:10 keine Meldung -
Sa, 20.04. 14:00 0.0 l/m2 in 1 Std. -
Sa, 20.04. 13:50 keine Meldung -
Sa, 20.04. 13:40 keine Meldung -
Sa, 20.04. 13:30 0.0 l/m2 in 1 Std. -
Sa, 20.04. 13:20 keine Meldung -
Sa, 20.04. 13:00 0.0 l/m2 in 1 Std. -
Sa, 20.04. 12:30 0.0 l/m2 in 1 Std. -
Sa, 20.04. 12:00 0.0 l/m2 in 1 Std. -
Sa, 20.04. 11:30 0.0 l/m2 in 1 Std. -
Ortszeit Stärke Spitze Richtung
km/h Bft. km/h Grad Sektor
Sa, 20.04. 14:00 11 2 25 50° NO
Sa, 20.04. 8:00 4 1 14 150° SO
Sa, 20.04. 2:00 6 1 15 110° O
Fr, 19.04. 20:00 7 2 32 60° NO
Fr, 19.04. 14:00 14 3 36 100° O
Fr, 19.04. 8:00 9 2 22 90° O
Fr, 19.04. 2:00 9 2 30 110° O
Do, 18.04. 20:00 11 2 43 110° O
Ortszeit Stärke Spitze Richtung
km/h Bft. km/h Grad Sektor
Sa, 20.04. 14:10 9 2 - 360° N
Sa, 20.04. 14:00 11 2 22 50° NO
Sa, 20.04. 13:50 11 2 - 50° NO
Sa, 20.04. 13:40 9 2 - 10° N
Sa, 20.04. 13:30 9 2 20 20° N
Sa, 20.04. 13:20 9 2 - 20° N
Sa, 20.04. 13:00 11 2 22 360° N
Sa, 20.04. 12:30 7 2 22 340° N
Sa, 20.04. 12:00 7 2 19 40° NO
Sa, 20.04. 11:30 7 2 19 10° N
Ortszeit Untergrenze Bedeckung Gattung
total tief tief mittel hoch
Sa, 20.04. 14:00 9000 m 6/8 0/8 - - -
Sa, 20.04. 8:00 - 0/8 0/8 - - -
Sa, 20.04. 2:00 - 0/8 0/8 - - -
Fr, 19.04. 20:00 - 0/8 0/8 - - -
Fr, 19.04. 14:00 - 0/8 0/8 - - -
Fr, 19.04. 8:00 - 0/8 0/8 - - -
Fr, 19.04. 2:00 - 0/8 0/8 - - -
Do, 18.04. 20:00 - 0/8 0/8 - - -
Ortszeit Bedeckungsgrad in Achtel und Wolkenuntergrenze
Sa, 20.04. 14:10 5(8400m) 7(9000m)
Sa, 20.04. 14:00 6(9000m) 6(9000m)
Sa, 20.04. 13:50 6(9000m)
Sa, 20.04. 13:40 4(9000m) 5(9000m)
Sa, 20.04. 13:30 6(9000m) 8(9000m)
Sa, 20.04. 13:20 6(9000m) 8(9000m)
Sa, 20.04. 13:00 4(9000m)
Sa, 20.04. 12:30 1(9000m)
Sa, 20.04. 12:00 keine Wolken
Sa, 20.04. 11:30 keine Wolken
Ortszeit Luftdruck NN (hPa) Tendenz (hPa in 3 Std.)
Sa, 20.04. 14:00 1028 - 0,8
Sa, 20.04. 8:00 1030 0,0
Sa, 20.04. 2:00 1032 + 0,1
Fr, 19.04. 20:00 1030 - 0,1
Fr, 19.04. 14:00 1030 - 0,5
Fr, 19.04. 8:00 1032 + 0,9
Fr, 19.04. 2:00 1031 + 0,8
Do, 18.04. 20:00 1028 + 0,5
Ortszeit Luftdruck NN (hPa) Tendenz (hPa in 3 Std.)
Sa, 20.04. 14:10 1028 keine Meldung
Sa, 20.04. 14:00 1028 - 0,8
Sa, 20.04. 13:50 1028 keine Meldung
Sa, 20.04. 13:40 1028 keine Meldung
Sa, 20.04. 13:30 1028 - 0,8
Sa, 20.04. 13:20 1028 keine Meldung
Sa, 20.04. 13:00 1028 - 0,6
Sa, 20.04. 12:30 1029 - 0,5
Sa, 20.04. 12:00 1029 - 0,5
Sa, 20.04. 11:30 1029 - 0,3
Ortszeit Schneehöhe (cm)
Sa, 20.04. 14:00 0
Sa, 20.04. 8:00 0
Sa, 20.04. 2:00 0
Fr, 19.04. 20:00 0
Fr, 19.04. 14:00 0
Fr, 19.04. 8:00 0
Fr, 19.04. 2:00 0
Do, 18.04. 20:00 0
Ortszeit Schneehöhe (cm)
Sa, 20.04. 14:10 0
Sa, 20.04. 14:00 0
Sa, 20.04. 13:50 0
Sa, 20.04. 13:40 0
Sa, 20.04. 13:30 0
Sa, 20.04. 13:20 0
Sa, 20.04. 13:00 0
Sa, 20.04. 12:30 0
Sa, 20.04. 12:00 0
Sa, 20.04. 11:30 0
Link zu dieser Seite / Seite empfehlen

Das Wetter in ...